Miscellaneous Local Product
Issued by NWS Hastings, NE

Home | Current Version | Previous Version | Graphics & Text | Print | Product List | Glossary On
Versions: 1 2 3 4 5 6 7 8 9 10 11 12 13 14 15 16 17 18 19 20 21 22 23 24 25 26 27 28 29 30 31 32 33 34 35 36 37 38 39 40 41 42 43 44 45 46 47 48 49 50
493
AXUS43 KGID 241502
MISGRI

GID CWA HOURLY WEATHER ROUNDUP
NATIONAL WEATHER SERVICE HASTINGS NE
1000 AM CDT SAT SEP 24 2016

NOTE: "FAIR" INDICATES FEW OR NO CLOUDS BELOW 12,000 FEET WITH NO
SIGNIFICANT WEATHER AND/OR OBSTRUCTIONS TO VISIBILITY.

...SOUTH CENTRAL NEBRASKA...

CITY           SKY/WX    TMP DP  RH WIND       PRES   REMARKS
GRAND ISLAND   CLOUDY    69  68  96 S13       29.91R
HASTINGS       LGT RAIN  69  67  93 S8        29.92R FOG
KEARNEY        PTSUNNY   66  55  68 SW9       29.90R
ORD            CLOUDY    71  65  81 S12       29.87R
YORK           PTSUNNY   73  68  83 S14G23    29.92R
AURORA         CLOUDY    70  69  98 S9        29.91R
LEXINGTON      CLOUDY    59  49  69 NW9       29.93R
HOLDREGE       CLOUDY    64  55  74 W7        29.92S
HEBRON         PTSUNNY   76  68  76 S15G23    29.92S

...NEBRASKA PANHANDLE...

CITY           SKY/WX    TMP DP  RH WIND       PRES   REMARKS
CHADRON        SUNNY     54  43  66 SW15      29.90R
ALLIANCE       SUNNY     50  42  74 W6        29.94R
SCOTTSBLUFF    SUNNY     51  42  71 SW3       29.95R
SIDNEY         CLOUDY    50  43  77 SW10      29.99R

...WESTERN AND NORTH CENTRAL NEBRASKA...

CITY           SKY/WX    TMP DP  RH WIND       PRES   REMARKS
VALENTINE      MOSUNNY   61  44  53 W13       29.88R
AINSWORTH      CLOUDY    60  47  62 W6        29.90R
ONEILL         PTSUNNY   72  66  82 S17       29.89R
BROKEN BOW     CLOUDY    61  50  67 NW8       29.91R
IMPERIAL       MOSUNNY   55  42  61 NW8       29.99R
NORTH PLATTE   PTSUNNY   59  46  62 W9        29.96R
MCCOOK         MOSUNNY   56  47  71 W8        29.96S

...EASTERN NEBRASKA...

CITY           SKY/WX    TMP DP  RH WIND       PRES   REMARKS
NORFOLK        CLOUDY    70  67  90 SE13      29.90S
SO SIOUX CITY  MOSUNNY   78  68  71 SE14      29.93S
TEKAMAH        SUNNY     78  66  66 SE14      29.95S
COLUMBUS       CLOUDY    72  63  73 SE7       29.91F
ALBION         CLOUDY    70  67  89 SE8       29.89F
OMAHA EPPLEY   CLOUDY    77  67  71 SE14      29.96S
OFFUTT AFB     CLOUDY    78  69  74 SE16      29.95F
MILLARD        MOSUNNY   78  69  72 SE10G17   29.95F
LINCOLN        PTSUNNY   80  69  69 S15       29.93F
NEBRASKA CITY  CLOUDY    75  62  62 S10       29.97F
BEATRICE       RAIN      73  71  92 S12       29.95R
FALLS CITY     CLOUDY    78  69  73 S9G21     29.98F

...NORTHERN KANSAS...

CITY           SKY/WX    TMP DP  RH WIND       PRES   REMARKS
GOODLAND       CLOUDY    54  42  64 N9        30.01R
HILL CITY      CLOUDY    60  53  77 NW9       29.95S
NORTON         SUNNY     59  45  58 W10       29.95
PHILLIPSBURG   SUNNY     64  54  68 W7        29.92R
SMITH CENTER   CLOUDY    68  66  94 CALM      29.92R
HAYS           CLOUDY    64  48  55 W8        29.96R
CONCORDIA      MOSUNNY   75  70  84 S15       29.93R
SALINA         CLOUDY    79  71  76 S17G26    29.92S
TOPEKA         CLOUDY    77  70  79 S12G21    29.99F



USA.gov is the U.S. government's official web portal to all federal, state and local government web resources and services.